• In Italy
  • List of Countries
  • For 7 days
  • Water Temperature
  • Satellite Maps
  • Weather Map
  • Weather Widgets
  • user-avatar
    Login

    Hourly Weather Kota

    Today, 24 January, Wednesday

    Time Temperature Precipitation Wind Pressure Humidity
    00:00 +16°C° 0 mm 3 mps 735 mmHg 29%
    01:00 +16°C° 0 mm 3 mps 735 mmHg 28%
    02:00 +14°C° 0 mm 3 mps 735 mmHg 28%
    03:00 +14°C° 0 mm 3 mps 735 mmHg 28%
    04:00 +14°C° 0 mm 2 mps 736 mmHg 28%
    05:00 +14°C° 0 mm 2 mps 736 mmHg 28%
    06:00 +14°C° 0 mm 2 mps 736 mmHg 28%
    07:00 +15°C° 0 mm 2 mps 737 mmHg 29%
    08:00 +15°C° 0 mm 2 mps 737 mmHg 30%
    09:00 +17°C° 0 mm 2 mps 738 mmHg 27%
    10:00 +20°C° 0 mm 2 mps 738 mmHg 24%
    11:00 +23°C° 0 mm 2 mps 738 mmHg 21%
    12:00 +24°C° 0 mm 2 mps 738 mmHg 20%
    13:00 +24°C° 0 mm 3 mps 737 mmHg 18%
    14:00 +25°C° 0 mm 3 mps 736 mmHg 16%
    15:00 +24°C° 0 mm 2 mps 736 mmHg 18%
    16:00 +24°C° 0 mm 2 mps 736 mmHg 20%
    17:00 +23°C° 0 mm 2 mps 736 mmHg 22%
    18:00 +20°C° 0 mm 2 mps 736 mmHg 22%
    19:00 +20°C° 0 mm 1 mps 737 mmHg 23%
    20:00 +18°C° 0 mm 1 mps 737 mmHg 23%
    21:00 +18°C° 0 mm 1 mps 737 mmHg 24%
    22:00 +16°C° 0 mm 1 mps 737 mmHg 24%
    23:00 +16°C° 0 mm 1 mps 737 mmHg 25%

    Tomorrow, 25 January, Thursday

    Time Temperature Precipitation Wind Pressure Humidity
    00:00 +15°C° 0 mm 1 mps 737 mmHg 26%
    01:00 +15°C° 0 mm 1 mps 737 mmHg 27%
    02:00 +14°C° 0 mm 2 mps 736 mmHg 28%
    03:00 +13°C° 0 mm 1 mps 736 mmHg 31%
    04:00 +13°C° 0 mm 1 mps 736 mmHg 35%
    05:00 +12°C° 0 mm 1 mps 736 mmHg 38%
    06:00 +13°C° 0 mm 1 mps 736 mmHg 40%
    07:00 +14°C° 0 mm 1 mps 737 mmHg 41%
    08:00 +15°C° 0 mm 1 mps 737 mmHg 43%
    09:00 +18°C° 0 mm 1 mps 738 mmHg 39%
    10:00 +20°C° 0 mm 1 mps 738 mmHg 34%
    11:00 +22°C° 0 mm 1 mps 738 mmHg 30%
    12:00 +24°C° 0 mm 1 mps 737 mmHg 27%
    13:00 +25°C° 0 mm 2 mps 736 mmHg 23%
    14:00 +26°C° 0 mm 2 mps 736 mmHg 20%
    15:00 +25°C° 0 mm 2 mps 736 mmHg 22%
    16:00 +24°C° 0 mm 2 mps 735 mmHg 24%
    17:00 +24°C° 0 mm 2 mps 735 mmHg 27%
    18:00 +22°C° 0 mm 1 mps 736 mmHg 28%
    19:00 +21°C° 0 mm 1 mps 736 mmHg 30%
    20:00 +19°C° 0 mm 1 mps 736 mmHg 31%
    21:00 +19°C° 0 mm 1 mps 736 mmHg 32%
    22:00 +18°C° 0 mm 1 mps 737 mmHg 33%
    23:00 +18°C° 0 mm 1 mps 737 mmHg 34%

    Day after tomorrow, 26 January, Friday

    Time Temperature Precipitation Wind Pressure Humidity
    00:00 +15°C° 0 mm 0 mps 736 mmHg 35%
    01:00 +15°C° 0 mm 0 mps 736 mmHg 36%
    02:00 +14°C° 0 mm 0 mps 736 mmHg 37%
    03:00 +14°C° 0 mm 0 mps 736 mmHg 38%
    04:00 +13°C° 0 mm 0 mps 736 mmHg 39%
    05:00 +13°C° 0 mm 0 mps 736 mmHg 40%
    06:00 +14°C° 0 mm 0 mps 736 mmHg 40%
    07:00 +15°C° 0 mm 0 mps 737 mmHg 40%
    08:00 +16°C° 0 mm 0 mps 737 mmHg 39%
    09:00 +20°C° 0 mm 1 mps 738 mmHg 35%
    10:00 +22°C° 0 mm 1 mps 738 mmHg 30%
    11:00 +24°C° 0 mm 2 mps 738 mmHg 25%
    12:00 +25°C° 0 mm 1 mps 737 mmHg 22%
    13:00 +26°C° 0 mm 1 mps 737 mmHg 20%
    14:00 +25°C° 0 mm 0 mps 736 mmHg 17%
    15:00 +24°C° 0 mm 0 mps 736 mmHg 19%
    16:00 +25°C° 0 mm 1 mps 735 mmHg 22%
    17:00 +25°C° 0 mm 1 mps 735 mmHg 24%
    18:00 +23°C° 0 mm 1 mps 736 mmHg 24%
    19:00 +22°C° 0 mm 1 mps 736 mmHg 25%
    20:00 +20°C° 0 mm 1 mps 736 mmHg 26%
    21:00 +20°C° 0 mm 1 mps 736 mmHg 27%
    22:00 +19°C° 0 mm 1 mps 736 mmHg 28%
    23:00 +19°C° 0 mm 1 mps 736 mmHg 29%

    27 January, Saturday

    Time Temperature Precipitation Wind Pressure Humidity
    00:00 +18°C° 0 mm 1 mps 736 mmHg 29%
    01:00 +18°C° 0 mm 1 mps 736 mmHg 30%
    02:00 +16°C° 0 mm 1 mps 735 mmHg 30%
    03:00 +16°C° 0 mm 1 mps 735 mmHg 31%
    04:00 +15°C° 0 mm 1 mps 735 mmHg 32%
    05:00 +15°C° 0 mm 1 mps 735 mmHg 33%
    06:00 +16°C° 0 mm 1 mps 736 mmHg 33%
    07:00 +16°C° 0 mm 1 mps 736 mmHg 34%
    08:00 +18°C° 0 mm 1 mps 737 mmHg 34%
    09:00 +21°C° 0 mm 1 mps 737 mmHg 30%
    10:00 +23°C° 0 mm 2 mps 737 mmHg 26%
    11:00 +25°C° 0 mm 2 mps 737 mmHg 22%
    12:00 +26°C° 0 mm 2 mps 736 mmHg 20%
    13:00 +27°C° 0 mm 2 mps 736 mmHg 18%
    14:00 +28°C° 0 mm 2 mps 735 mmHg 17%
    15:00 +27°C° 0 mm 2 mps 735 mmHg 19%
    16:00 +27°C° 0 mm 1 mps 735 mmHg 21%
    17:00 +26°C° 0 mm 1 mps 734 mmHg 23%
    18:00 +24°C° 0 mm 1 mps 735 mmHg 23%
    19:00 +23°C° 0 mm 1 mps 735 mmHg 23%
    20:00 +21°C° 0 mm 1 mps 736 mmHg 24%
    21:00 +18°C° 0 mm 0 mps 736 mmHg 25%
    22:00 +18°C° 0 mm 0 mps 736 mmHg 26%
    23:00 +17°C° 0 mm 0 mps 736 mmHg 27%

    28 January, Sunday

    Time Temperature Precipitation Wind Pressure Humidity
    00:00 +17°C° 0 mm 0 mps 736 mmHg 28%
    01:00 +16°C° 0 mm 0 mps 735 mmHg 28%
    02:00 +16°C° 0 mm 0 mps 735 mmHg 29%
    03:00 +15°C° 0 mm 0 mps 735 mmHg 30%
    04:00 +15°C° 0 mm 0 mps 735 mmHg 30%
    05:00 +15°C° 0 mm 0 mps 735 mmHg 30%
    06:00 +15°C° 0 mm 0 mps 736 mmHg 31%
    07:00 +16°C° 0 mm 0 mps 737 mmHg 32%
    08:00 +17°C° 0 mm 0 mps 737 mmHg 32%
    09:00 +21°C° 0 mm 1 mps 737 mmHg 29%
    10:00 +23°C° 0 mm 1 mps 738 mmHg 25%
    11:00 +26°C° 0 mm 1 mps 738 mmHg 21%
    12:00 +27°C° 0 mm 1 mps 737 mmHg 19%
    13:00 +28°C° 0 mm 1 mps 736 mmHg 17%
    14:00 +27°C° 0 mm 0 mps 736 mmHg 16%
    15:00 +26°C° 0 mm 0 mps 736 mmHg 18%
    16:00 +27°C° 0 mm 1 mps 735 mmHg 20%
    17:00 +26°C° 0 mm 1 mps 735 mmHg 21%
    18:00 +25°C° 0 mm 1 mps 736 mmHg 22%
    19:00 +23°C° 0 mm 1 mps 736 mmHg 23%
    20:00 +21°C° 0 mm 2 mps 736 mmHg 23%
    21:00 +20°C° 0 mm 2 mps 737 mmHg 24%
    22:00 +19°C° 0 mm 2 mps 737 mmHg 25%
    23:00 +19°C° 0 mm 2 mps 737 mmHg 26%

    29 January, Monday

    Time Temperature Precipitation Wind Pressure Humidity
    00:00 +19°C° 0 mm 1 mps 736 mmHg 27%
    01:00 +19°C° 0 mm 1 mps 736 mmHg 28%
    02:00 +18°C° 0 mm 1 mps 736 mmHg 29%
    03:00 +18°C° 0 mm 1 mps 736 mmHg 29%
    04:00 +16°C° 0 mm 1 mps 736 mmHg 30%
    05:00 +16°C° 0 mm 1 mps 736 mmHg 30%
    06:00 +18°C° 0 mm 1 mps 737 mmHg 31%
    07:00 +18°C° 0 mm 1 mps 737 mmHg 31%
    08:00 +19°C° 0 mm 1 mps 738 mmHg 32%
    09:00 +20°C° 0 mm 2 mps 738 mmHg 28%
    10:00 +24°C° 0 mm 2 mps 739 mmHg 24%
    11:00 +26°C° 0 mm 3 mps 739 mmHg 21%
    12:00 +28°C° 0 mm 2 mps 738 mmHg 19%
    13:00 +29°C° 0 mm 2 mps 737 mmHg 18%
    14:00 +30°C° 0 mm 2 mps 737 mmHg 17%
    15:00 +29°C° 0 mm 2 mps 737 mmHg 19%
    16:00 +28°C° 0 mm 1 mps 736 mmHg 21%
    17:00 +28°C° 0 mm 1 mps 736 mmHg 23%
    18:00 +26°C° 0 mm 1 mps 737 mmHg 23%
    19:00 +25°C° 0 mm 2 mps 737 mmHg 24%
    20:00 +23°C° 0 mm 2 mps 737 mmHg 24%
    21:00 +21°C° 0 mm 2 mps 737 mmHg 25%
    22:00 +21°C° 0 mm 2 mps 737 mmHg 26%
    23:00 +20°C° 0 mm 2 mps 737 mmHg 27%
    Show more